Temperature
14 13 13 13 12 12 12 12 12 13 13 13 13 13 12 11 10 10 10 10 9 9 9 9 9 9 9 9 9 9 10 10 10 10 10 10 10 10 10 10 10 10 11
13 13 13 12 12 12 12 12 12 13 13 13 13 12 11 10 9 9 9 9 9 9 8 8 8 8 9 9 9 9 9 10 10 10 10 10 10 10 10 10 10 10 10
13 13 13 12 12 12 12 12 12 13 13 12 12 11 11 10 9 9 9 9 9 8 8 8 8 8 8 8 8 9 9 9 9 10 10 10 10 10 10 10 10 10 10
13 13 12 12 12 12 12 12 12 12 12 12 11 11 10 10 9 8 8 8 8 8 8 8 8 8 8 8 8 8 8 8 8 8 8 9 9 9 9 9 8 9 9
13 12 12 12 12 12 12 12 12 11 11 11 11 11 10 9 8 8 7 7 7 7 7 7 7 7 7 7 7 7 7 7 7 7 7 7 7 7 7 6 6 6 6
13 12 12 12 12 11 12 11 11 11 11 11 11 10 9 9 8 8 7 7 6 6 7 7 7 7 6 6 6 6 6 6 5 5 5 5 5 5 5 5 4 4 4
13 12 12 12 12 11 11 11 11 10 10 10 10 10 9 8 8 7 7 7 6 6 6 6 6 6 6 6 6 6 5 5 5 5 4 4 4 3 3 3 3 3 3
12 12 12 12 12 11 11 11 10 10 10 10 10 9 8 8 7 7 6 6 6 5 5 5 5 5 5 5 5 5 4 4 4 4 3 2 2 2 2 2 2 2 2
12 12 12 12 11 11 11 10 10 10 9 9 9 8 8 7 7 7 6 5 5 5 4 4 4 4 4 4 4 3 3 3 2 1 0 0 0 0 0 0 0 1 1
12 12 11 11 11 11 10 10 10 9 9 8 8 7 7 6 5 6 5 5 4 4 4 3 3 3 3 2 2 2 1 1 -0 -1 -1 -1 -1 -1 -1 -1 -1 -1 -0
11 11 11 11 11 10 10 10 9 9 8 8 7 6 6 5 4 3 3 4 4 3 3 3 3 2 2 1 0 -0 -1 -2 -2 -3 -3 -3 -2 -2 -2 -2 -2 -2 -2
11 11 10 10 10 10 10 9 9 8 7 7 6 6 5 4 3 2 2 2 3 3 3 3 2 1 0 -0 -1 -2 -2 -3 -4 -4 -4 -3 -3 -3 -3 -3 -3 -3 -3
11 10 10 10 10 10 9 9 8 8 7 6 6 5 4 3 3 2 1 1 1 2 2 1 0 -0 -0 -1 -1 -2 -3 -4 -4 -4 -4 -4 -4 -4 -4 -4 -4 -4 -4
11 10 10 9 9 9 9 8 8 7 6 5 5 4 4 3 2 2 1 -0 -1 -1 -1 -0 -0 -1 -2 -2 -2 -3 -4 -4 -5 -5 -5 -5 -5 -5 -5 -5 -5 -5 -5
10 10 9 9 9 9 8 7 7 6 5 5 4 3 3 2 2 1 0 -1 -2 -4 -3 -2 -3 -3 -3 -3 -4 -4 -5 -5 -5 -5 -5 -5 -6 -6 -6 -5 -5 -5 -5
10 9 9 8 8 8 7 7 6 5 5 4 3 3 2 2 1 1 -0 -1 -3 -4 -5 -4 -4 -5 -5 -5 -5 -6 -6 -6 -6 -6 -6 -6 -6 -6 -6 -6 -6 -6 -6
9 9 8 8 8 7 7 6 5 5 4 3 2 2 1 1 0 -0 -1 -2 -3 -5 -6 -5 -5 -6 -6 -6 -6 -7 -7 -7 -7 -7 -7 -6 -6 -6 -6 -6 -6 -6 -6
9 8 8 8 7 6 6 5 4 4 3 2 2 1 1 -0 -1 -2 -3 -4 -5 -6 -6 -7 -7 -7 -7 -7 -7 -7 -7 -7 -7 -7 -7 -7 -7 -7 -7 -7 -6 -6 -6
8 7 7 7 6 5 5 4 3 3 2 2 1 0 -0 -1 -2 -3 -4 -5 -6 -7 -7 -8 -8 -7 -7 -8 -8 -7 -7 -7 -7 -7 -7 -7 -7 -7 -7 -7 -7 -7 -7
7 7 6 6 5 4 4 3 3 2 2 1 0 -0 -1 -2 -3 -5 -6 -6 -7 -8 -8 -8 -8 -8 -8 -8 -8 -8 -8 -8 -8 -8 -7 -7 -7 -7 -7 -7 -7 -7 -7
7 6 5 5 4 3 3 2 2 1 1 0 -0 -1 -2 -4 -5 -6 -7 -7 -7 -8 -8 -8 -9 -9 -8 -8 -8 -9 -9 -9 -8 -8 -8 -7 -7 -6 -6 -6 -6 -7 -7
6 5 4 4 3 3 2 1 1 1 0 -0 -1 -2 -4 -4 -6 -7 -7 -8 -8 -8 -9 -9 -9 -9 -9 -9 -9 -9 -9 -9 -9 -8 -8 -8 -7 -7 -6 -7 -7 -7 -7
5 4 3 3 2 2 1 1 0 -0 -1 -1 -2 -4 -5 -6 -7 -7 -8 -8 -8 -8 -9 -9 -9 -9 -9 -9 -9 -9 -9 -9 -9 -8 -9 -9 -7 -8 -7 -8 -7 -7 -7
3 3 2 2 1 1 0 -0 -1 -1 -2 -2 -4 -5 -6 -7 -7 -8 -8 -8 -8 -8 -8 -9 -9 -9 -9 -9 -9 -9 -9 -9 -9 -8 -8 -9 -8 -8 -8 -7 -6 -6 -6
2 2 1 1 0 -0 -0 -1 -2 -2 -3 -4 -5 -6 -7 -8 -8 -8 -8 -9 -9 -8 -8 -9 -9 -9 -8 -8 -9 -9 -9 -10 -10 -9 -8 -9 -9 -9 -8 -7 -6 -6 -6
2 1 0 -0 -1 -1 -2 -2 -3 -3 -4 -5 -5 -6 -7 -8 -8 -9 -9 -9 -9 -9 -9 -9 -8 -7 -7 -7 -8 -9 -9 -10 -10 -10 -8 -9 -10 -11 -10 -8 -7 -6 -6
Wind_Speed
5 4 5 7 8 8 6 4 5 5 5 6 7 6 6 6 10 13 13 14 14 13 13 13 13 13 13 13 13 13 13 14 15 15 15 15 14 14 13 13 13 13 12
5 5 5 5 6 8 7 6 6 4 4 4 3 4 5 5 7 13 14 13 13 12 12 12 12 13 13 13 13 13 14 14 15 15 15 15 15 15 14 13 13 13 13
11 8 5 5 6 8 7 6 5 4 3 2 2 2 3 4 4 9 12 12 11 10 9 10 12 12 13 13 13 14 14 14 15 15 15 16 16 16 16 15 14 14 14
16 10 6 5 8 9 6 3 3 3 3 4 3 2 1 2 2 6 8 9 8 6 5 7 10 12 12 13 14 14 14 14 15 15 16 16 17 17 17 17 16 16 16
17 11 6 6 9 6 4 4 5 4 4 4 3 1 0 2 2 3 3 7 6 3 2 4 8 10 12 14 14 15 14 15 15 16 16 17 18 18 18 18 18 18 18
16 13 7 8 9 6 5 5 4 4 3 3 4 2 1 2 3 3 2 4 6 6 3 1 3 7 11 14 15 14 14 15 15 16 17 18 18 19 19 19 20 20 20
16 12 7 7 6 6 6 6 4 4 4 4 3 3 2 2 3 3 3 2 2 5 5 1 3 5 8 12 14 14 15 15 16 17 18 19 20 21 21 21 21 22 22
15 13 9 8 8 7 7 6 4 3 2 4 3 2 3 2 2 3 2 3 2 0 0 2 3 5 6 9 11 13 14 16 17 17 19 21 22 23 23 23 24 24 24
14 13 10 9 9 7 6 6 4 4 3 2 4 4 3 2 4 4 2 1 0 1 1 3 5 5 6 9 8 8 13 16 16 19 22 24 25 25 25 25 25 26 26
12 14 13 10 9 8 8 6 5 3 3 2 2 2 2 2 1 4 4 3 3 3 4 4 5 7 8 9 8 10 14 16 18 22 25 26 26 26 26 26 26 26 27
10 13 13 10 9 8 8 7 6 4 3 3 2 2 1 0 2 3 5 5 5 4 5 5 6 9 10 9 8 9 15 18 21 25 27 28 28 27 27 27 27 28 28
9 10 12 9 8 8 8 7 6 5 4 3 2 2 1 1 1 2 4 5 6 5 6 6 6 8 10 10 9 12 16 19 23 27 28 29 28 28 28 29 29 29 30
10 11 11 9 8 7 7 6 6 5 3 3 1 1 2 1 1 2 4 5 6 5 5 5 4 7 9 5 6 13 18 22 25 28 29 30 30 30 30 30 30 30 30
10 11 11 10 8 8 8 6 5 4 4 2 0 1 1 2 2 2 2 4 6 4 3 6 6 6 7 9 14 20 17 24 28 30 31 31 31 31 31 31 31 31 31
13 13 12 11 9 8 7 6 4 5 3 2 1 1 1 2 2 2 2 3 4 6 6 5 4 6 14 16 19 18 17 24 30 31 31 31 31 32 32 33 33 32 32
15 15 13 11 9 8 7 6 5 5 3 0 1 1 2 2 2 2 3 4 4 7 8 4 6 8 10 16 22 21 21 29 29 30 31 32 32 33 33 33 34 33 33
16 14 12 11 9 8 7 6 4 4 1 1 1 2 2 2 2 3 3 4 5 6 12 10 6 7 9 10 13 18 21 20 22 28 31 32 32 32 33 33 34 34 34
14 13 11 10 9 8 6 5 3 3 1 2 2 3 3 3 3 4 4 5 5 6 10 15 8 7 10 10 11 12 15 20 19 27 29 30 31 32 33 34 34 34 34
14 12 10 10 9 7 6 5 3 2 2 3 3 3 4 3 4 4 5 5 6 8 7 11 12 8 9 11 12 13 14 10 18 23 26 28 31 32 34 34 34 33 33
13 11 11 10 9 7 5 4 3 3 4 4 4 3 4 4 5 5 6 6 7 7 8 9 12 11 11 10 10 10 12 8 11 16 21 26 29 31 32 33 34 34 33
13 12 11 9 7 5 5 5 5 5 5 6 5 5 4 7 10 9 8 6 7 6 7 10 12 13 12 10 10 9 14 12 12 12 12 13 14 13 16 26 29 30 31
12 11 10 8 6 5 6 4 4 4 5 6 6 5 5 7 11 14 16 16 15 12 10 11 13 14 14 12 10 11 14 16 16 6 8 15 13 15 13 9 25 31 31
11 10 8 7 6 7 5 3 5 4 5 7 7 6 6 7 11 5 11 15 15 20 21 16 15 14 14 12 11 14 15 17 18 12 12 18 14 15 13 16 29 31 32
9 8 7 6 5 6 5 2 6 6 6 7 7 6 6 6 8 10 7 7 8 12 17 14 11 12 13 12 14 17 17 15 15 12 9 15 16 16 17 11 26 30 31
8 7 6 5 3 4 4 3 6 4 5 7 6 7 8 7 14 18 10 9 11 11 18 22 23 23 28 28 22 13 10 12 17 15 8 9 13 15 16 15 17 23 24
7 6 4 3 2 1 1 3 6 2 5 5 6 7 12 14 17 19 12 11 13 12 12 13 15 19 16 17 22 12 9 12 15 12 5 4 10 12 10 7 7 9 15
Wind_Direction
161 130 110 113 114 121 116 89 68 62 51 39 28 21 12 32 90 103 86 77 72 67 60 50 40 30 21 13 7 2 359 356 354 353 351 350 349 347 347 349 352 353 351
137 112 104 104 104 102 96 91 78 66 59 50 23 17 14 32 85 115 111 94 84 73 60 47 33 22 13 6 0 356 351 348 346 344 342 340 337 334 330 328 330 331 331
128 120 116 115 119 115 98 81 78 67 61 18 8 63 44 37 60 113 125 122 107 88 65 41 23 13 5 359 354 350 346 344 341 338 336 334 330 326 321 317 316 316 316
133 127 126 127 123 108 95 80 61 64 56 26 0 20 32 99 56 101 112 110 102 82 57 31 15 4 356 352 348 345 343 342 339 336 333 330 327 322 317 311 309 309 308
136 134 130 130 122 107 96 87 57 54 48 11 321 283 310 171 149 116 125 125 120 101 23 4 6 355 348 343 340 340 341 340 337 334 332 328 325 320 315 311 306 303 302
138 134 133 129 118 109 109 106 103 71 46 347 311 290 213 179 146 174 189 154 164 181 206 328 11 3 349 338 336 336 336 335 335 333 330 327 323 319 315 311 307 303 299
141 141 135 127 124 125 129 126 118 90 35 354 2 341 272 200 184 203 187 166 210 207 201 213 43 11 346 334 329 328 332 334 333 331 329 325 321 317 313 309 305 301 298
145 145 137 134 125 118 105 97 97 110 63 31 40 15 1 338 298 245 182 189 228 203 114 6 1 334 326 320 314 321 328 328 327 327 326 322 318 313 308 304 302 299 297
144 141 134 129 126 122 120 114 103 104 130 68 59 74 71 332 322 319 270 205 189 306 290 297 294 287 304 309 303 314 318 320 318 320 320 318 313 308 305 303 301 299 297
142 136 132 131 124 121 122 118 104 90 95 112 87 68 103 112 22 319 321 337 352 339 317 307 300 290 289 288 285 303 312 311 311 314 317 314 309 306 304 303 301 299 298
138 134 133 130 126 125 121 115 109 89 73 86 83 52 22 51 205 225 282 304 323 322 324 309 294 285 276 273 270 289 302 306 307 309 310 307 305 304 303 303 302 301 299
138 132 132 128 123 121 120 120 114 101 83 74 57 49 61 19 345 303 287 304 299 293 300 287 281 274 263 262 267 290 301 304 305 305 304 302 302 302 303 302 301 298 296
149 143 137 131 125 122 121 121 121 121 109 95 67 34 29 359 326 298 288 294 298 300 286 279 295 307 294 290 303 305 304 305 305 303 301 301 301 302 301 299 297 295 293
147 140 135 128 126 125 126 125 124 129 118 127 146 89 348 300 306 300 290 307 307 292 283 299 308 303 334 333 315 312 310 306 304 302 300 301 302 301 299 298 296 294 292
143 138 132 131 129 126 128 136 137 137 134 163 151 58 341 306 327 320 312 294 279 292 296 281 296 335 330 317 312 311 304 305 303 301 302 301 300 299 298 297 296 294 292
142 136 132 130 127 124 124 122 116 111 100 49 139 147 286 300 322 319 303 291 278 280 288 283 301 300 306 309 308 309 304 303 302 300 298 299 298 298 297 296 295 294 292
139 134 133 130 127 128 128 127 131 129 143 288 296 257 270 285 291 293 294 287 277 276 286 290 283 292 297 297 299 296 296 293 292 296 298 298 297 298 298 296 295 293 291
131 129 129 125 124 121 118 120 123 128 209 268 286 289 284 290 293 288 280 277 280 281 287 296 299 298 296 295 295 293 300 298 294 297 298 300 300 300 298 296 294 293 291
125 121 117 114 110 105 98 85 69 27 336 302 284 273 272 281 285 282 285 287 287 292 289 299 303 300 297 296 296 295 292 291 295 300 303 301 299 297 296 296 297 296 295
119 112 106 104 104 103 96 72 34 355 328 316 306 290 274 265 266 270 281 274 279 284 290 294 298 298 295 291 292 298 300 288 295 301 298 295 294 296 296 297 296 295 294
111 107 105 103 103 111 89 57 20 353 341 325 312 298 288 290 291 290 288 278 288 289 294 296 297 299 299 301 300 298 302 303 294 289 286 288 292 289 290 291 292 291 290
108 108 110 112 115 108 90 49 358 338 328 316 306 301 300 295 296 305 308 308 306 306 304 297 298 298 298 296 295 298 301 302 299 275 289 297 293 290 288 283 290 294 295
110 111 116 125 124 121 107 35 343 337 312 296 290 289 295 299 309 302 298 303 303 303 301 297 295 294 294 294 294 295 292 291 293 295 298 295 294 291 289 292 296 297 297
117 118 117 109 109 139 127 37 347 346 312 296 292 292 295 295 299 302 292 300 288 293 293 294 286 287 292 291 287 291 292 292 289 287 277 287 294 294 296 290 294 294 294
110 112 113 112 105 130 131 27 354 332 307 309 319 328 322 303 305 311 315 302 295 292 300 300 299 299 300 301 303 302 297 298 297 296 284 278 291 299 297 292 287 290 293
107 109 109 112 109 115 102 356 342 324 316 317 316 312 313 311 312 316 312 302 302 299 296 298 300 300 296 296 302 298 295 299 298 297 282 276 295 309 302 270 265 288 293
Height
1520 1521 1522 1523 1524 1525 1526 1527 1527 1527 1526 1525 1524 1523 1523 1522 1520 1519 1519 1519 1519 1519 1519 1519 1519 1518 1518 1517 1516 1516 1515 1514 1514 1513 1512 1512 1511 1511 1511 1511 1511 1512 1512
1518 1520 1521 1522 1523 1524 1525 1525 1525 1525 1524 1523 1522 1521 1520 1520 1519 1517 1517 1517 1517 1517 1517 1517 1517 1516 1516 1515 1514 1513 1512 1511 1510 1509 1508 1508 1507 1507 1507 1506 1506 1506 1506
1516 1518 1519 1521 1522 1523 1523 1523 1523 1522 1522 1521 1520 1519 1518 1518 1518 1516 1515 1515 1515 1515 1516 1516 1515 1514 1513 1512 1511 1510 1509 1507 1506 1505 1504 1503 1502 1501 1501 1500 1500 1500 1500
1513 1515 1517 1519 1520 1521 1521 1521 1521 1520 1519 1519 1518 1517 1516 1516 1516 1515 1514 1513 1513 1513 1514 1514 1513 1512 1511 1509 1508 1506 1505 1503 1501 1500 1499 1498 1497 1496 1495 1494 1494 1493 1493
1510 1512 1514 1516 1518 1519 1519 1519 1519 1518 1518 1517 1516 1515 1514 1514 1513 1513 1513 1512 1512 1512 1512 1511 1510 1509 1507 1506 1504 1502 1501 1499 1497 1495 1494 1492 1491 1490 1489 1488 1487 1487 1486
1506 1509 1512 1513 1515 1516 1517 1517 1517 1517 1516 1515 1514 1513 1513 1512 1512 1511 1511 1510 1510 1509 1509 1508 1506 1505 1504 1502 1500 1498 1496 1494 1492 1490 1489 1487 1486 1484 1483 1482 1481 1480 1480
1503 1506 1508 1510 1512 1513 1515 1515 1516 1516 1515 1514 1513 1512 1511 1511 1510 1509 1509 1509 1508 1507 1506 1504 1503 1502 1500 1498 1496 1494 1492 1490 1487 1485 1483 1482 1480 1478 1477 1475 1474 1473 1472
1500 1503 1505 1507 1509 1511 1512 1513 1514 1514 1513 1512 1512 1510 1510 1511 1509 1508 1507 1507 1506 1505 1504 1502 1500 1498 1496 1493 1491 1489 1486 1484 1482 1480 1478 1476 1474 1472 1470 1469 1467 1466 1465
1496 1499 1501 1504 1506 1508 1510 1511 1512 1511 1511 1510 1510 1510 1509 1509 1508 1507 1506 1505 1504 1503 1501 1499 1496 1493 1491 1488 1486 1483 1481 1478 1475 1473 1472 1469 1467 1465 1463 1461 1459 1458 1456
1492 1495 1497 1500 1503 1505 1507 1509 1510 1510 1509 1508 1507 1507 1507 1507 1506 1504 1503 1502 1501 1499 1497 1495 1492 1489 1486 1483 1480 1478 1475 1472 1470 1467 1465 1462 1460 1458 1456 1454 1451 1449 1447
1487 1490 1494 1497 1499 1502 1504 1506 1507 1508 1507 1506 1505 1504 1503 1503 1503 1501 1498 1496 1496 1494 1492 1490 1487 1483 1480 1478 1475 1472 1469 1467 1464 1461 1458 1455 1453 1451 1448 1446 1443 1441 1438
1482 1486 1490 1493 1496 1499 1501 1503 1504 1505 1505 1504 1503 1502 1501 1500 1500 1498 1495 1491 1488 1486 1485 1483 1480 1477 1475 1472 1469 1466 1463 1460 1457 1454 1451 1448 1446 1443 1440 1437 1434 1431 1429
1475 1481 1485 1489 1493 1496 1498 1500 1501 1502 1501 1501 1500 1499 1498 1497 1496 1495 1492 1487 1483 1479 1477 1475 1475 1473 1471 1467 1464 1461 1457 1454 1450 1447 1444 1441 1438 1434 1431 1428 1425 1422 1420
1471 1476 1482 1486 1490 1493 1495 1496 1497 1498 1498 1497 1496 1495 1494 1493 1492 1490 1488 1484 1478 1473 1471 1469 1468 1467 1465 1462 1458 1454 1450 1446 1442 1438 1435 1432 1428 1425 1421 1418 1415 1412 1410
1468 1473 1479 1483 1487 1489 1491 1493 1494 1494 1494 1493 1492 1491 1490 1489 1487 1485 1483 1481 1478 1470 1463 1461 1461 1460 1458 1454 1451 1446 1442 1438 1434 1430 1427 1423 1419 1415 1411 1408 1405 1402 1399
1465 1471 1476 1481 1484 1486 1488 1489 1490 1490 1490 1489 1487 1487 1486 1484 1482 1480 1478 1476 1473 1469 1461 1456 1455 1453 1450 1447 1443 1439 1434 1430 1426 1422 1418 1415 1411 1406 1402 1398 1394 1391 1388
1463 1469 1474 1478 1481 1483 1485 1486 1487 1486 1486 1484 1483 1482 1480 1479 1477 1475 1472 1470 1467 1463 1456 1449 1449 1446 1443 1439 1434 1431 1426 1422 1417 1414 1410 1406 1402 1398 1393 1389 1385 1381 1378
1462 1468 1473 1476 1478 1480 1482 1483 1483 1482 1481 1480 1479 1477 1476 1474 1471 1469 1466 1463 1461 1458 1453 1445 1441 1439 1435 1431 1426 1422 1418 1414 1410 1405 1402 1398 1393 1388 1383 1379 1375 1371 1368
1461 1466 1470 1473 1476 1478 1479 1479 1479 1478 1477 1476 1474 1472 1470 1468 1466 1463 1460 1458 1455 1452 1448 1442 1435 1431 1427 1424 1419 1415 1411 1406 1402 1397 1393 1388 1383 1378 1374 1370 1366 1361 1357
1460 1464 1468 1471 1473 1475 1476 1476 1475 1474 1473 1471 1469 1467 1465 1463 1460 1458 1455 1452 1449 1445 1441 1436 1429 1424 1420 1417 1413 1408 1401 1397 1392 1387 1382 1378 1373 1369 1364 1359 1355 1350 1346
1459 1463 1466 1469 1470 1472 1472 1472 1471 1470 1468 1466 1465 1462 1460 1458 1455 1453 1451 1447 1444 1439 1435 1430 1424 1419 1414 1411 1407 1402 1395 1388 1382 1378 1372 1368 1363 1357 1353 1348 1344 1339 1336
1458 1461 1464 1466 1467 1468 1469 1468 1467 1465 1463 1461 1459 1457 1455 1452 1450 1448 1445 1442 1439 1435 1429 1425 1419 1415 1409 1405 1400 1396 1390 1382 1372 1370 1365 1358 1355 1348 1343 1338 1334 1330 1327
1457 1460 1462 1463 1464 1465 1465 1464 1462 1461 1459 1456 1454 1451 1449 1447 1444 1441 1438 1435 1432 1429 1426 1421 1414 1409 1404 1399 1395 1389 1383 1377 1368 1363 1360 1349 1345 1338 1334 1329 1326 1321 1317
1455 1458 1460 1461 1461 1462 1461 1460 1458 1456 1454 1451 1449 1447 1444 1441 1438 1435 1432 1428 1425 1422 1418 1414 1409 1404 1399 1394 1389 1384 1378 1370 1362 1357 1354 1345 1336 1330 1323 1318 1315 1311 1307
1455 1457 1458 1458 1458 1458 1457 1455 1453 1451 1448 1446 1444 1442 1439 1436 1433 1431 1427 1422 1417 1414 1411 1407 1403 1398 1393 1388 1383 1377 1371 1364 1354 1348 1346 1340 1330 1322 1312 1306 1304 1301 1297
1454 1455 1456 1456 1456 1454 1453 1451 1449 1446 1443 1441 1438 1436 1433 1431 1428 1425 1422 1417 1411 1407 1403 1398 1394 1390 1385 1380 1376 1372 1366 1359 1351 1341 1336 1332 1324 1318 1303 1294 1293 1290 1287